Overview Statistics Trail Chart Weather Telemetry Raw packets
 

This is the latest recevied weather packets stored in our database for station/object R2AJV-13. If no packets are shown the sender has not sent any weather packets the latest 10 day(s).

<< 15 16 17 18 19 20 21 >>
Time Temp. Humidity Pressure Rain* Wind** Luminosity Snow
1788084075 21.67° C 56% 1006.3 hPa 0 mm - - -
1788083165 21.67° C 57% 1006.4 hPa 0 mm - - -
1788082260 21.67° C 54% 1006.6 hPa 0 mm - - -
1788081349 21.67° C 54% 1006.6 hPa 0 mm - - -
1788080454 21.11° C 57% 1006.6 hPa 0 mm - - -
1788079548 21.67° C 57% 1006.8 hPa 0 mm - - -
1788078637 20.56° C 61% 1007 hPa 0 mm - - -
1788077727 20° C 62% 1007.1 hPa 0 mm - - -
1788076817 20° C 65% 1007.2 hPa 0 mm - - -
1788075060 20° C 62% 1007.5 hPa 0 mm - - -
1788074149 20° C 60% 1007.5 hPa 0 mm - - -
1788073239 19.44° C 62% 1007.6 hPa 0 mm - - -
1788072328 18.89° C 64% 1007.7 hPa 0 mm - - -
1788071424 19.44° C 65% 1007.8 hPa 0 mm - - -
1788070574 18.89° C 69% 1007.9 hPa 0 mm - - -
1788069662 17.22° C 74% 1007.8 hPa 0 mm - - -
1788068752 16.67° C 78% 1007.8 hPa 0 mm - - -
1788037266 8.33° C 99% 1009.3 hPa 0 mm - - -
1788036361 8.33° C 99% 1009.2 hPa 0 mm - - -
1788035451 8.89° C 99% 1009.5 hPa 0 mm - - -
1788034539 8.89° C 99% 1009.4 hPa 0 mm - - -
1788033629 8.89° C 99% 1009.4 hPa 0 mm - - -
1788032724 9.44° C 99% 1009.3 hPa 0 mm - - -
1788031874 9.44° C 99% 1009.3 hPa 0 mm - - -
1788030963 10° C 99% 1009.2 hPa 0 mm - - -

* Rain latest hour (hover to see other rain measurements)
** Current wind speed in m/s (hover to see current wind gust speed)